• Em Portugal
  • Lista de países
  • Para 7 dias
  • Temperatura da água
  • Mapas de satélite
  • Mapa do tempo
  • Widgets de tempo
  • user-avatar
    Iniciar Sessão

    Previsão horária em Meshhed

    Hoje, 23 Janeiro, Terça-feira

    Tempo Temperatura Precipitação Vento Pressão Humidade
    00:00 +2°C° 0 mm 1 m/s 610 mmHg 46%
    01:00 +1°C° 0 mm 1 m/s 610 mmHg 46%
    02:00 -1°C° 0 mm 2 m/s 609 mmHg 46%
    03:00 -1°C° 0 mm 2 m/s 609 mmHg 46%
    04:00 +1°C° 0 mm 1 m/s 608 mmHg 45%
    05:00 -1°C° 0 mm 2 m/s 608 mmHg 45%
    06:00 -1°C° 0 mm 2 m/s 608 mmHg 45%
    07:00 -1°C° 0 mm 3 m/s 608 mmHg 45%
    08:00 +1°C° 0 mm 3 m/s 609 mmHg 39%
    09:00 +3°C° 0 mm 3 m/s 609 mmHg 32%
    10:00 +6°C° 0 mm 4 m/s 610 mmHg 24%
    11:00 +7°C° 0 mm 5 m/s 610 mmHg 21%
    12:00 +8°C° 0 mm 5 m/s 610 mmHg 18%
    13:00 +9°C° 0 mm 6 m/s 610 mmHg 15%
    14:00 +9°C° 0 mm 5 m/s 610 mmHg 16%
    15:00 +9°C° 0 mm 5 m/s 609 mmHg 16%
    16:00 +8°C° 0 mm 5 m/s 609 mmHg 17%
    17:00 +7°C° 0 mm 5 m/s 609 mmHg 19%
    18:00 +5°C° 0 mm 4 m/s 608 mmHg 22%
    19:00 +4°C° 0 mm 3 m/s 608 mmHg 25%
    20:00 +3°C° 0 mm 3 m/s 608 mmHg 26%
    21:00 +2°C° 0 mm 3 m/s 608 mmHg 27%
    22:00 +2°C° 0 mm 3 m/s 608 mmHg 28%
    23:00 +1°C° 0 mm 3 m/s 608 mmHg 29%

    Amanhã, 24 Janeiro, Quarta-feira

    Tempo Temperatura Precipitação Vento Pressão Humidade
    00:00 +1°C° 0 mm 3 m/s 608 mmHg 29%
    01:00 +2°C° 0 mm 2 m/s 607 mmHg 30%
    02:00 +1°C° 0 mm 2 m/s 607 mmHg 31%
    03:00 +1°C° 0 mm 2 m/s 607 mmHg 31%
    04:00 +1°C° 0 mm 2 m/s 607 mmHg 32%
    05:00 -1°C° 0 mm 2 m/s 607 mmHg 33%
    06:00 -1°C° 0 mm 2 m/s 607 mmHg 33%
    07:00 +1°C° 0 mm 1 m/s 607 mmHg 34%
    08:00 +3°C° 0 mm 1 m/s 609 mmHg 30%
    09:00 +5°C° 0 mm 1 m/s 610 mmHg 26%
    10:00 +7°C° 0 mm 1 m/s 611 mmHg 22%
    11:00 +8°C° 0 mm 1 m/s 611 mmHg 20%
    12:00 +8°C° 0 mm 1 m/s 611 mmHg 19%
    13:00 +9°C° 0 mm 1 m/s 611 mmHg 17%
    14:00 +9°C° 0 mm 1 m/s 612 mmHg 17%
    15:00 +9°C° 0 mm 1 m/s 612 mmHg 17%
    16:00 +9°C° 0 mm 1 m/s 612 mmHg 17%
    17:00 +8°C° 0 mm 1 m/s 611 mmHg 20%
    18:00 +6°C° 0 mm 1 m/s 611 mmHg 23%
    19:00 +5°C° 0 mm 1 m/s 611 mmHg 25%
    20:00 +4°C° 0 mm 1 m/s 611 mmHg 26%
    21:00 +4°C° 0 mm 1 m/s 611 mmHg 28%
    22:00 +3°C° 0 mm 1 m/s 611 mmHg 29%
    23:00 +2°C° 0 mm 1 m/s 611 mmHg 29%

    Depois de amanhã, 25 Janeiro, Quinta-feira

    Tempo Temperatura Precipitação Vento Pressão Humidade
    00:00 +2°C° 0 mm 1 m/s 611 mmHg 30%
    01:00 +2°C° 0 mm 1 m/s 611 mmHg 31%
    02:00 +1°C° 0 mm 1 m/s 611 mmHg 31%
    03:00 +1°C° 0 mm 1 m/s 611 mmHg 30%
    04:00 +1°C° 0 mm 1 m/s 611 mmHg 30%
    05:00 0°C° 0 mm 1 m/s 611 mmHg 30%
    06:00 0°C° 0 mm 1 m/s 611 mmHg 30%
    07:00 0°C° 0 mm 1 m/s 611 mmHg 30%
    08:00 +2°C° 0 mm 1 m/s 612 mmHg 27%
    09:00 +3°C° 0 mm 1 m/s 613 mmHg 25%
    10:00 +5°C° 0 mm 1 m/s 614 mmHg 22%
    11:00 +5°C° 0 mm 2 m/s 614 mmHg 22%
    12:00 +6°C° 0 mm 2 m/s 614 mmHg 22%
    13:00 +6°C° 0 mm 2 m/s 614 mmHg 22%
    14:00 +6°C° 0 mm 2 m/s 614 mmHg 23%
    15:00 +5°C° 0 mm 3 m/s 614 mmHg 23%
    16:00 +5°C° 0 mm 3 m/s 614 mmHg 24%
    17:00 +4°C° 0 mm 3 m/s 614 mmHg 28%
    18:00 +3°C° 0 mm 3 m/s 614 mmHg 31%
    19:00 +2°C° 0 mm 3 m/s 614 mmHg 35%
    20:00 +2°C° 0 mm 2 m/s 613 mmHg 38%
    21:00 +2°C° 0 mm 2 m/s 613 mmHg 40%
    22:00 +1°C° 0 mm 2 m/s 613 mmHg 43%
    23:00 -1°C° 0 mm 2 m/s 613 mmHg 45%

    26 Janeiro, Sexta-feira

    Tempo Temperatura Precipitação Vento Pressão Humidade
    00:00 -1°C° 0 mm 2 m/s 613 mmHg 47%
    01:00 +1°C° 0 mm 1 m/s 613 mmHg 49%
    02:00 0°C° 0 mm 1 m/s 612 mmHg 50%
    03:00 0°C° 0 mm 1 m/s 612 mmHg 51%
    04:00 0°C° 0 mm 1 m/s 612 mmHg 52%
    05:00 -1°C° 0 mm 1 m/s 612 mmHg 53%
    06:00 -3°C° 0 mm 2 m/s 612 mmHg 53%
    07:00 -3°C° 0 mm 2 m/s 612 mmHg 54%
    08:00 -1°C° 0 mm 2 m/s 613 mmHg 49%
    09:00 +1°C° 0 mm 2 m/s 613 mmHg 43%
    10:00 +3°C° 0 mm 2 m/s 614 mmHg 38%
    11:00 +4°C° 0 mm 2 m/s 614 mmHg 35%
    12:00 +4°C° 0 mm 3 m/s 614 mmHg 33%
    13:00 +5°C° 0 mm 3 m/s 613 mmHg 30%
    14:00 +5°C° 0 mm 3 m/s 613 mmHg 30%
    15:00 +5°C° 0 mm 3 m/s 613 mmHg 30%
    16:00 +5°C° 0 mm 3 m/s 613 mmHg 29%
    17:00 +4°C° 0 mm 3 m/s 613 mmHg 33%
    18:00 +3°C° 0 mm 3 m/s 612 mmHg 37%
    19:00 +2°C° 0 mm 3 m/s 612 mmHg 41%
    20:00 +1°C° 0 mm 3 m/s 612 mmHg 43%
    21:00 +1°C° 0 mm 3 m/s 612 mmHg 45%
    22:00 0°C° 0 mm 3 m/s 612 mmHg 47%
    23:00 +1°C° 0 mm 2 m/s 612 mmHg 48%

    27 Janeiro, Sábado

    Tempo Temperatura Precipitação Vento Pressão Humidade
    00:00 +1°C° 0 mm 2 m/s 612 mmHg 48%
    01:00 +1°C° 0 mm 2 m/s 611 mmHg 48%
    02:00 -1°C° 0 mm 2 m/s 611 mmHg 50%
    03:00 -1°C° 0 mm 2 m/s 611 mmHg 51%
    04:00 -1°C° 0 mm 2 m/s 610 mmHg 53%
    05:00 -2°C° 0 mm 2 m/s 611 mmHg 54%
    06:00 -2°C° 0 mm 2 m/s 611 mmHg 55%
    07:00 -2°C° 0 mm 2 m/s 611 mmHg 56%
    08:00 -1°C° 0 mm 3 m/s 611 mmHg 51%
    09:00 0°C° 0 mm 3 m/s 612 mmHg 46%
    10:00 +1°C° 0 mm 4 m/s 612 mmHg 41%
    11:00 +1°C° 0 mm 4 m/s 612 mmHg 39%
    12:00 +3°C° 0 mm 4 m/s 612 mmHg 37%
    13:00 +3°C° 0 mm 5 m/s 612 mmHg 35%
    14:00 +3°C° 0 mm 5 m/s 611 mmHg 35%
    15:00 +2°C° 0 mm 5 m/s 611 mmHg 36%
    16:00 +2°C° 0 mm 6 m/s 611 mmHg 36%
    17:00 +1°C° 0 mm 5 m/s 611 mmHg 39%
    18:00 0°C° 0 mm 5 m/s 611 mmHg 41%
    19:00 -2°C° 0 mm 5 m/s 610 mmHg 44%
    20:00 -2°C° 0 mm 5 m/s 610 mmHg 44%
    21:00 -3°C° 0 mm 4 m/s 610 mmHg 45%
    22:00 -4°C° 0 mm 4 m/s 610 mmHg 45%
    23:00 -4°C° 0 mm 4 m/s 610 mmHg 45%

    28 Janeiro, Domingo

    Tempo Temperatura Precipitação Vento Pressão Humidade
    00:00 -5°C° 0 mm 4 m/s 610 mmHg 45%
    01:00 -5°C° 0 mm 4 m/s 609 mmHg 44%
    02:00 -5°C° 0 mm 4 m/s 609 mmHg 44%
    03:00 -5°C° 0 mm 4 m/s 609 mmHg 43%
    04:00 -7°C° 0 mm 4 m/s 609 mmHg 43%
    05:00 -7°C° 0 mm 4 m/s 609 mmHg 42%
    06:00 -7°C° 0 mm 4 m/s 609 mmHg 41%
    07:00 -7°C° 0 mm 4 m/s 609 mmHg 41%
    08:00 -7°C° 0,1 mm 4 m/s 609 mmHg 44%
    09:00 -7°C° 0,1 mm 4 m/s 609 mmHg 48%
    10:00 -7°C° 0,1 mm 4 m/s 609 mmHg 52%
    11:00 -7°C° 0,3 mm 4 m/s 609 mmHg 56%
    12:00 -7°C° 0,3 mm 4 m/s 609 mmHg 60%
    13:00 -7°C° 0,3 mm 4 m/s 608 mmHg 64%
    14:00 -7°C° 0,2 mm 5 m/s 609 mmHg 64%
    15:00 -7°C° 0,2 mm 5 m/s 609 mmHg 63%
    16:00 -7°C° 0,2 mm 5 m/s 609 mmHg 63%
    17:00 -8°C° 0,2 mm 5 m/s 609 mmHg 67%
    18:00 -10°C° 0,2 mm 5 m/s 609 mmHg 71%
    19:00 -10°C° 0,2 mm 4 m/s 609 mmHg 75%
    20:00 -10°C° 0,2 mm 4 m/s 609 mmHg 76%
    21:00 -11°C° 0,2 mm 4 m/s 609 mmHg 77%
    22:00 -10°C° 0,2 mm 3 m/s 609 mmHg 77%
    23:00 -10°C° 0,3 mm 3 m/s 609 mmHg 78%
    Mostrar mais